,,PressureMeas_1m,,PRMeasQMR101_1,,RHStat155_1m_1,,SRMeasQMS101R_1m,,TAStat155_1m_1,,GenWind_1,,GenWind_1,
2018-05-01, 00:00:06,VALID,918.713,VALID,0.0,VALID,97.627,VALID,-0.008,VALID,21.261,VALID,317.0,VALID,0.0,
2018-05-01, 00:01:06,VALID,918.668,VALID,0.0,VALID,97.674,VALID,-0.011,VALID,21.263,VALID,301.0,VALID,0.0,
2018-05-01, 00:02:06,VALID,918.66,VALID,0.0,VALID,97.748,VALID,-0.02,VALID,21.292,VALID,298.0,VALID,0.0,
2018-05-01, 00:03:06,VALID,918.642,VALID,0.0,VALID,97.781,VALID,0.026,VALID,21.305,VALID,325.0,VALID,0.0,
2018-05-01, 00:04:06,VALID,918.645,VALID,0.0,VALID,97.699,VALID,0.009,VALID,21.299,VALID,360.0,VALID,0.0,
2018-05-01, 00:05:06,VALID,918.648,VALID,0.0,VALID,97.702,VALID,0.005,VALID,21.304,VALID,7.0,VALID,0.0,
2018-05-01, 00:06:06,VALID,918.664,VALID,0.0,VALID,97.597,VALID,0.003,VALID,21.267,VALID,5.0,VALID,0.0,
2018-05-01, 00:07:06,VALID,918.667,VALID,0.0,VALID,97.566,VALID,0.007,VALID,21.244,VALID,8.0,VALID,0.0,
2018-05-01, 00:08:06,VALID,918.671,VALID,0.0,VALID,97.745,VALID,0.007,VALID,21.275,VALID,6.0,VALID,0.0,
2018-05-01, 00:09:06,VALID,918.676,VALID,0.0,VALID,97.921,VALID,0.015,VALID,21.306,VALID,339.0,VALID,0.0,
2018-05-01, 00:10:06,VALID,918.66,VALID,0.0,VALID,97.922,VALID,0.006,VALID,21.296,VALID,339.0,VALID,0.0,
2018-05-01, 00:11:06,VALID,918.644,VALID,0.0,VALID,97.834,VALID,-0.002,VALID,21.276,VALID,338.0,VALID,0.0,
2018-05-01, 00:12:06,VALID,918.635,VALID,0.0,VALID,97.694,VALID,0.012,VALID,21.226,VALID,336.0,VALID,0.0,
2018-05-01, 00:13:06,VALID,918.613,VALID,0.0,VALID,97.739,VALID,0.001,VALID,21.21,VALID,336.0,VALID,0.0,
2018-05-01, 00:14:06,VALID,918.576,VALID,0.0,VALID,97.885,VALID,0.029,VALID,21.238,VALID,336.0,VALID,0.0,
2018-05-01, 00:15:06,VALID,918.568,VALID,0.0,VALID,97.927,VALID,0.008,VALID,21.247,VALID,330.0,VALID,0.0,
2018-05-01, 00:16:06,VALID,918.549,VALID,0.0,VALID,97.989,VALID,0.011,VALID,21.277,VALID,328.0,VALID,0.0,
2018-05-01, 00:17:06,VALID,918.537,VALID,0.0,VALID,98.062,VALID,0.008,VALID,21.317,VALID,259.0,VALID,0.0,
2018-05-01, 00:18:06,VALID,918.521,VALID,0.0,VALID,98.048,VALID,-0.028,VALID,21.336,VALID,218.0,VALID,0.0,
2018-05-01, 00:19:06,VALID,918.522,VALID,0.0,VALID,98.035,VALID,-0.053,VALID,21.355,VALID,218.0,VALID,0.0,
2018-05-01, 00:20:06,VALID,918.51,VALID,0.0,VALID,97.968,VALID,-0.03,VALID,21.362,VALID,245.0,VALID,0.0,
2018-05-01, 00:21:06,VALID,918.49,VALID,0.0,VALID,97.957,VALID,-0.035,VALID,21.38,VALID,31.0,VALID,0.0,
2018-05-01, 00:22:06,VALID,918.475,VALID,0.0,VALID,97.843,VALID,-0.037,VALID,21.343,VALID,21.0,VALID,0.0,
2018-05-01, 00:23:06,VALID,918.454,VALID,0.0,VALID,97.837,VALID,-0.022,VALID,21.306,VALID,22.0,VALID,0.0,
2018-05-01, 00:24:06,VALID,918.455,VALID,0.0,VALID,97.893,VALID,-0.035,VALID,21.282,VALID,18.0,VALID,0.0,
2018-05-01, 00:25:06,VALID,918.445,VALID,0.0,VALID,97.918,VALID,-0.037,VALID,21.246,VALID,17.0,VALID,0.0,
2018-05-01, 00:26:06,VALID,918.436,VALID,0.0,VALID,98.036,VALID,-0.032,VALID,21.252,VALID,17.0,VALID,0.0,
2018-05-01, 00:27:06,VALID,918.434,VALID,0.0,VALID,98.134,VALID,-0.04,VALID,21.275,VALID,17.0,VALID,0.0,
2018-05-01, 00:28:06,VALID,918.432,VALID,0.0,VALID,98.063,VALID,-0.034,VALID,21.217,VALID,258.0,VALID,0.0,
2018-05-01, 00:29:06,VALID,918.443,VALID,0.0,VALID,98.012,VALID,-0.016,VALID,21.195,VALID,212.0,VALID,0.0,
2018-05-01, 00:30:06,VALID,918.428,VALID,0.0,VALID,98.021,VALID,-0.024,VALID,21.169,VALID,217.0,VALID,0.0,
2018-05-01, 00:31:06,VALID,918.407,VALID,0.0,VALID,98.037,VALID,-0.032,VALID,21.157,VALID,233.0,VALID,0.0,
2018-05-01, 00:32:06,VALID,918.395,VALID,0.0,VALID,98.13,VALID,-0.027,VALID,21.18,VALID,328.0,VALID,0.0,
2018-05-01, 00:33:06,VALID,918.389,VALID,0.0,VALID,98.15,VALID,-0.032,VALID,21.184,VALID,336.0,VALID,0.0,
2018-05-01, 00:34:06,VALID,918.37,VALID,0.0,VALID,98.143,VALID,-0.026,VALID,21.181,VALID,336.0,VALID,0.0,
2018-05-01, 00:35:06,VALID,918.352,VALID,0.0,VALID,98.128,VALID,-0.019,VALID,21.159,VALID,359.0,VALID,0.0,
2018-05-01, 00:36:06,VALID,918.335,VALID,0.0,VALID,98.073,VALID,-0.027,VALID,21.136,VALID,9.0,VALID,0.0,
2018-05-01, 00:37:06,VALID,918.321,VALID,0.0,VALID,98.068,VALID,-0.017,VALID,21.114,VALID,15.0,VALID,0.0,
2018-05-01, 00:38:06,VALID,918.297,VALID,0.0,VALID,98.138,VALID,-0.018,VALID,21.118,VALID,17.0,VALID,0.0,
2018-05-01, 00:39:06,VALID,918.295,VALID,0.0,VALID,98.128,VALID,-0.012,VALID,21.103,VALID,358.0,VALID,0.0,
2018-05-01, 00:40:06,VALID,918.285,VALID,0.0,VALID,98.094,VALID,-0.016,VALID,21.07,VALID,350.0,VALID,0.0,
2018-05-01, 00:41:06,VALID,918.292,VALID,0.0,VALID,98.139,VALID,-0.015,VALID,21.043,VALID,343.0,VALID,0.0,
2018-05-01, 00:42:06,VALID,918.305,VALID,0.0,VALID,98.157,VALID,-0.042,VALID,21.03,VALID,325.0,VALID,0.0,
2018-05-01, 00:43:06,VALID,918.301,VALID,0.0,VALID,98.254,VALID,-0.018,VALID,21.025,VALID,343.0,VALID,0.0,
2018-05-01, 00:44:06,VALID,918.311,VALID,0.0,VALID,98.231,VALID,-0.011,VALID,21.006,VALID,347.0,VALID,0.0,
2018-05-01, 00:45:06,VALID,918.298,VALID,0.0,VALID,98.254,VALID,-0.015,VALID,20.99,VALID,343.0,VALID,0.0,
2018-05-01, 00:46:06,VALID,918.298,VALID,0.0,VALID,98.248,VALID,-0.016,VALID,20.968,VALID,346.0,VALID,0.0,
2018-05-01, 00:47:06,VALID,918.294,VALID,0.0,VALID,98.313,VALID,-0.01,VALID,20.975,VALID,359.0,VALID,0.0,
2018-05-01, 00:48:06,VALID,918.265,VALID,0.0,VALID,98.256,VALID,-0.003,VALID,20.937,VALID,352.0,VALID,0.0,
2018-05-01, 00:49:06,VALID,918.246,VALID,0.0,VALID,98.324,VALID,-0.009,VALID,20.932,VALID,354.0,VALID,0.0,
2018-05-01, 00:50:06,VALID,918.224,VALID,0.0,VALID,98.299,VALID,-0.006,VALID,20.907,VALID,353.0,VALID,0.0,
2018-05-01, 00:51:06,VALID,918.217,VALID,0.0,VALID,98.365,VALID,-0.014,VALID,20.903,VALID,344.0,VALID,0.0,
2018-05-01, 00:52:06,VALID,918.186,VALID,0.0,VALID,98.368,VALID,-0.006,VALID,20.89,VALID,342.0,VALID,0.0,
2018-05-01, 00:53:06,VALID,918.172,VALID,0.0,VALID,98.425,VALID,-0.005,VALID,20.897,VALID,1.0,VALID,0.0,
2018-05-01, 00:54:06,VALID,918.144,VALID,0.0,VALID,98.441,VALID,-0.021,VALID,20.889,VALID,357.0,VALID,0.0,
2018-05-01, 00:55:06,VALID,918.115,VALID,0.0,VALID,98.474,VALID,-0.021,VALID,20.896,VALID,356.0,VALID,0.0,
2018-05-01, 00:56:06,VALID,918.096,VALID,0.0,VALID,98.477,VALID,-0.006,VALID,20.894,VALID,349.0,VALID,0.0,
2018-05-01, 00:57:06,VALID,918.084,VALID,0.0,VALID,98.528,VALID,-0.002,VALID,20.894,VALID,352.0,VALID,0.0,
2018-05-01, 00:58:06,VALID,918.059,VALID,0.0,VALID,98.486,VALID,-0.013,VALID,20.867,VALID,348.0,VALID,0.0,
2018-05-01, 00:59:06,VALID,918.037,VALID,0.0,VALID,98.506,VALID,-0.003,VALID,20.86,VALID,347.0,VALID,0.0,
2018-05-01, 01:00:06,VALID,918.03,VALID,0.0,VALID,98.553,VALID,-0.003,VALID,20.891,VALID,349.0,VALID,0.0,
2018-05-01, 01:01:06,VALID,918.024,VALID,0.0,VALID,98.608,VALID,0.003,VALID,20.94,VALID,350.0,VALID,0.0,
2018-05-01, 01:02:06,VALID,918.028,VALID,0.0,VALID,98.597,VALID,-0.017,VALID,20.954,VALID,353.0,VALID,0.0,
2018-05-01, 01:03:06,VALID,918.038,VALID,0.0,VALID,98.614,VALID,-0.054,VALID,20.972,VALID,354.0,VALID,0.0,
2018-05-01, 01:04:06,VALID,918.04,VALID,0.0,VALID,98.648,VALID,-0.069,VALID,21.014,VALID,354.0,VALID,0.0,
2018-05-01, 01:05:06,VALID,918.054,VALID,0.0,VALID,98.614,VALID,-0.073,VALID,21.023,VALID,354.0,VALID,0.0,
2018-05-01, 01:06:06,VALID,918.043,VALID,0.0,VALID,98.612,VALID,-0.03,VALID,21.032,VALID,354.0,VALID,0.0,
2018-05-01, 01:07:06,VALID,918.027,VALID,0.0,VALID,98.632,VALID,-0.001,VALID,21.049,VALID,356.0,VALID,0.0,
2018-05-01, 01:08:06,VALID,918.024,VALID,0.0,VALID,98.625,VALID,-0.007,VALID,21.062,VALID,13.0,VALID,0.0,
2018-05-01, 01:09:06,VALID,918.006,VALID,0.0,VALID,98.566,VALID,-0.016,VALID,21.035,VALID,7.0,VALID,0.0,
2018-05-01, 01:10:06,VALID,917.991,VALID,0.0,VALID,98.52,VALID,0.005,VALID,21.024,VALID,343.0,VALID,0.0,
2018-05-01, 01:11:06,VALID,917.995,VALID,0.0,VALID,98.488,VALID,0.016,VALID,21.025,VALID,339.0,VALID,0.0,
2018-05-01, 01:12:06,VALID,917.972,VALID,0.0,VALID,98.541,VALID,-0.008,VALID,21.064,VALID,333.0,VALID,0.0,
2018-05-01, 01:13:06,VALID,917.964,VALID,0.0,VALID,98.476,VALID,-0.015,VALID,21.071,VALID,353.0,VALID,0.0,
2018-05-01, 01:14:06,VALID,917.967,VALID,0.0,VALID,98.407,VALID,0.005,VALID,21.053,VALID,17.0,VALID,0.0,
2018-05-01, 01:15:06,VALID,917.954,VALID,0.0,VALID,98.319,VALID,-0.006,VALID,21.024,VALID,352.0,VALID,0.0,
2018-05-01, 01:16:06,VALID,917.956,VALID,0.0,VALID,98.191,VALID,-0.007,VALID,20.989,VALID,352.0,VALID,0.0,
2018-05-01, 01:17:06,VALID,917.951,VALID,0.0,VALID,98.087,VALID,-0.001,VALID,20.97,VALID,351.0,VALID,0.0,
2018-05-01, 01:18:06,VALID,917.941,VALID,0.0,VALID,98.075,VALID,-0.001,VALID,20.987,VALID,345.0,VALID,0.0,
2018-05-01, 01:19:06,VALID,917.945,VALID,0.0,VALID,98.0,VALID,0.004,VALID,21.001,VALID,343.0,VALID,0.0,
2018-05-01, 01:20:06,VALID,917.94,VALID,0.0,VALID,98.053,VALID,0.006,VALID,21.045,VALID,343.0,VALID,0.0,
2018-05-01, 01:21:06,VALID,917.95,VALID,0.0,VALID,97.959,VALID,-0.002,VALID,21.058,VALID,344.0,VALID,0.0,
2018-05-01, 01:22:06,VALID,917.936,VALID,0.0,VALID,98.026,VALID,0.023,VALID,21.089,VALID,344.0,VALID,0.0,
2018-05-01, 01:23:06,VALID,917.924,VALID,0.0,VALID,98.112,VALID,0.017,VALID,21.123,VALID,344.0,VALID,0.0,
2018-05-01, 01:24:06,VALID,917.907,VALID,0.0,VALID,98.101,VALID,0.012,VALID,21.126,VALID,335.0,VALID,0.0,
2018-05-01, 01:25:06,VALID,917.89,VALID,0.0,VALID,98.128,VALID,-0.005,VALID,21.133,VALID,330.0,VALID,0.0,
2018-05-01, 01:26:06,VALID,917.881,VALID,0.0,VALID,98.164,VALID,-0.009,VALID,21.152,VALID,227.0,VALID,0.0,
2018-05-01, 01:27:06,VALID,917.862,VALID,0.0,VALID,98.173,VALID,0.007,VALID,21.18,VALID,229.0,VALID,0.0,
2018-05-01, 01:28:06,VALID,917.841,VALID,0.0,VALID,98.119,VALID,0.002,VALID,21.171,VALID,263.0,VALID,0.0,
2018-05-01, 01:29:06,VALID,917.839,VALID,0.0,VALID,98.108,VALID,0.002,VALID,21.176,VALID,298.0,VALID,0.0,
2018-05-01, 01:30:06,VALID,917.819,VALID,0.0,VALID,98.113,VALID,0.007,VALID,21.19,VALID,316.0,VALID,0.0,
2018-05-01, 01:31:06,VALID,917.78,VALID,0.0,VALID,98.078,VALID,0.009,VALID,21.177,VALID,321.0,VALID,0.0,
2018-05-01, 01:32:06,VALID,917.762,VALID,0.0,VALID,98.03,VALID,0.011,VALID,21.155,VALID,325.0,VALID,0.0,
2018-05-01, 01:33:06,VALID,917.732,VALID,0.0,VALID,98.07,VALID,0.018,VALID,21.14,VALID,355.0,VALID,0.0,
2018-05-01, 01:34:06,VALID,917.705,VALID,0.0,VALID,98.072,VALID,0.021,VALID,21.123,VALID,1.0,VALID,0.0,
2018-05-01, 01:35:06,VALID,917.699,VALID,0.0,VALID,98.093,VALID,0.026,VALID,21.102,VALID,3.0,VALID,0.0,
2018-05-01, 01:36:06,VALID,917.679,VALID,0.0,VALID,98.046,VALID,0.028,VALID,21.063,VALID,348.0,VALID,0.0,
2018-05-01, 01:37:06,VALID,917.68,VALID,0.0,VALID,98.011,VALID,0.023,VALID,21.046,VALID,323.0,VALID,0.0,
2018-05-01, 01:38:06,VALID,917.677,VALID,0.0,VALID,98.015,VALID,0.028,VALID,21.068,VALID,337.0,VALID,0.0,
2018-05-01, 01:39:06,VALID,917.665,VALID,0.0,VALID,98.068,VALID,0.018,VALID,21.123,VALID,4.0,VALID,0.0,
2018-05-01, 01:40:06,VALID,917.663,VALID,0.0,VALID,97.943,VALID,0.029,VALID,21.122,VALID,9.0,VALID,0.0,
2018-05-01, 01:41:06,VALID,917.653,VALID,0.0,VALID,97.825,VALID,0.011,VALID,21.102,VALID,332.0,VALID,0.0,
2018-05-01, 01:42:06,VALID,917.649,VALID,0.0,VALID,97.822,VALID,0.013,VALID,21.099,VALID,324.0,VALID,0.0,
2018-05-01, 01:43:06,VALID,917.633,VALID,0.0,VALID,97.618,VALID,0.01,VALID,21.075,VALID,344.0,VALID,0.0,
2018-05-01, 01:44:06,VALID,917.634,VALID,0.0,VALID,97.462,VALID,-0.001,VALID,21.071,VALID,319.0,VALID,0.0,
2018-05-01, 01:45:06,VALID,917.624,VALID,0.0,VALID,97.425,VALID,0.006,VALID,21.087,VALID,334.0,VALID,0.0,
2018-05-01, 01:46:06,VALID,917.623,VALID,0.0,VALID,97.421,VALID,0.02,VALID,21.107,VALID,7.0,VALID,0.0,
2018-05-01, 01:47:06,VALID,917.617,VALID,0.0,VALID,97.14,VALID,0.008,VALID,21.053,VALID,3.0,VALID,0.0,
2018-05-01, 01:48:06,VALID,917.591,VALID,0.0,VALID,97.155,VALID,0.02,VALID,21.041,VALID,7.0,VALID,0.0,
2018-05-01, 01:49:06,VALID,917.599,VALID,0.0,VALID,97.479,VALID,0.033,VALID,21.079,VALID,352.0,VALID,0.0,
2018-05-01, 01:50:06,VALID,917.596,VALID,0.0,VALID,97.591,VALID,0.037,VALID,21.084,VALID,348.0,VALID,0.0,
2018-05-01, 01:51:06,VALID,917.576,VALID,0.0,VALID,97.692,VALID,0.041,VALID,21.09,VALID,342.0,VALID,0.0,
2018-05-01, 01:52:06,VALID,917.589,VALID,0.0,VALID,97.501,VALID,0.034,VALID,21.044,VALID,352.0,VALID,0.0,
2018-05-01, 01:53:06,VALID,917.567,VALID,0.0,VALID,97.603,VALID,0.026,VALID,21.082,VALID,262.0,VALID,0.0,
2018-05-01, 01:54:06,VALID,917.559,VALID,0.0,VALID,97.706,VALID,0.029,VALID,21.142,VALID,230.0,VALID,0.0,
2018-05-01, 01:55:06,VALID,917.555,VALID,0.0,VALID,97.671,VALID,0.038,VALID,21.153,VALID,230.0,VALID,0.0,
2018-05-01, 01:56:06,VALID,917.548,VALID,0.0,VALID,97.603,VALID,0.03,VALID,21.125,VALID,273.0,VALID,0.0,
2018-05-01, 01:57:06,VALID,917.527,VALID,0.0,VALID,97.711,VALID,0.049,VALID,21.121,VALID,332.0,VALID,0.0,
2018-05-01, 01:58:06,VALID,917.507,VALID,0.0,VALID,97.805,VALID,0.037,VALID,21.118,VALID,340.0,VALID,0.0,
2018-05-01, 01:59:06,VALID,917.487,VALID,0.0,VALID,97.749,VALID,0.037,VALID,21.08,VALID,342.0,VALID,0.0,
2018-05-01, 02:00:06,VALID,917.463,VALID,0.0,VALID,97.707,VALID,0.039,VALID,21.06,VALID,337.0,VALID,0.0,
2018-05-01, 02:01:06,VALID,917.457,VALID,0.0,VALID,97.729,VALID,0.031,VALID,21.062,VALID,327.0,VALID,0.0,
2018-05-01, 02:02:06,VALID,917.471,VALID,0.0,VALID,97.687,VALID,0.024,VALID,21.061,VALID,328.0,VALID,0.0,
2018-05-01, 02:03:06,VALID,917.469,VALID,0.0,VALID,97.744,VALID,-0.02,VALID,21.085,VALID,340.0,VALID,0.0,
2018-05-01, 02:04:06,VALID,917.47,VALID,0.0,VALID,97.792,VALID,-0.035,VALID,21.121,VALID,340.0,VALID,0.0,
2018-05-01, 02:05:06,VALID,917.457,VALID,0.0,VALID,97.79,VALID,-0.032,VALID,21.133,VALID,340.0,VALID,0.0,
2018-05-01, 02:06:06,VALID,917.45,VALID,0.0,VALID,97.772,VALID,-0.044,VALID,21.145,VALID,340.0,VALID,0.0,
2018-05-01, 02:07:06,VALID,917.432,VALID,0.0,VALID,97.74,VALID,-0.055,VALID,21.141,VALID,340.0,VALID,0.0,
2018-05-01, 02:08:06,VALID,917.422,VALID,0.0,VALID,97.76,VALID,-0.041,VALID,21.145,VALID,340.0,VALID,0.0,
2018-05-01, 02:09:06,VALID,917.399,VALID,0.0,VALID,97.82,VALID,-0.038,VALID,21.159,VALID,1.0,VALID,0.0,
2018-05-01, 02:10:06,VALID,917.394,VALID,0.0,VALID,97.719,VALID,-0.042,VALID,21.133,VALID,55.0,VALID,0.0,
2018-05-01, 02:11:06,VALID,917.378,VALID,0.0,VALID,97.832,VALID,-0.025,VALID,21.167,VALID,55.0,VALID,0.0,
2018-05-01, 02:12:06,VALID,917.365,VALID,0.0,VALID,97.859,VALID,-0.033,VALID,21.197,VALID,54.0,VALID,0.0,
2018-05-01, 02:13:06,VALID,917.356,VALID,0.0,VALID,97.735,VALID,-0.033,VALID,21.179,VALID,54.0,VALID,0.0,
2018-05-01, 02:14:06,VALID,917.336,VALID,0.0,VALID,97.385,VALID,-0.019,VALID,21.09,VALID,53.0,VALID,0.0,
2018-05-01, 02:15:06,VALID,917.313,VALID,0.0,VALID,97.234,VALID,-0.035,VALID,21.052,VALID,52.0,VALID,0.0,
2018-05-01, 02:16:06,VALID,917.29,VALID,0.0,VALID,97.341,VALID,-0.039,VALID,21.058,VALID,52.0,VALID,0.0,
2018-05-01, 02:17:06,VALID,917.271,VALID,0.0,VALID,97.351,VALID,-0.015,VALID,21.049,VALID,52.0,VALID,0.0,
2018-05-01, 02:18:06,VALID,917.26,VALID,0.0,VALID,97.375,VALID,0.038,VALID,21.06,VALID,52.0,VALID,0.0,
2018-05-01, 02:19:06,VALID,917.243,VALID,0.0,VALID,97.433,VALID,0.025,VALID,21.062,VALID,52.0,VALID,0.0,
2018-05-01, 02:20:06,VALID,917.226,VALID,0.0,VALID,97.386,VALID,0.033,VALID,21.049,VALID,52.0,VALID,0.0,
2018-05-01, 02:21:06,VALID,917.211,VALID,0.0,VALID,97.417,VALID,0.008,VALID,21.049,VALID,52.0,VALID,0.0,
2018-05-01, 02:22:06,VALID,917.192,VALID,0.0,VALID,97.359,VALID,0.026,VALID,21.038,VALID,52.0,VALID,0.0,
2018-05-01, 02:23:06,VALID,917.18,VALID,0.0,VALID,97.315,VALID,0.039,VALID,21.032,VALID,52.0,VALID,0.0,
2018-05-01, 02:24:06,VALID,917.158,VALID,0.0,VALID,97.369,VALID,0.022,VALID,21.054,VALID,52.0,VALID,0.0,
2018-05-01, 02:25:06,VALID,917.158,VALID,0.0,VALID,97.442,VALID,0.025,VALID,21.087,VALID,52.0,VALID,0.0,
2018-05-01, 02:26:06,VALID,917.145,VALID,0.0,VALID,97.394,VALID,0.03,VALID,21.103,VALID,52.0,VALID,0.0,
2018-05-01, 02:27:06,VALID,917.106,VALID,0.0,VALID,97.441,VALID,0.031,VALID,21.153,VALID,52.0,VALID,0.0,
2018-05-01, 02:28:06,VALID,917.093,VALID,0.0,VALID,97.369,VALID,0.018,VALID,21.172,VALID,39.0,VALID,0.0,
2018-05-01, 02:29:06,VALID,917.073,VALID,0.0,VALID,97.051,VALID,0.04,VALID,21.146,VALID,351.0,VALID,0.0,
2018-05-01, 02:30:06,VALID,917.057,VALID,0.0,VALID,96.846,VALID,0.032,VALID,21.115,VALID,349.0,VALID,0.0,
2018-05-01, 02:31:06,VALID,917.011,VALID,0.0,VALID,96.936,VALID,0.026,VALID,21.123,VALID,352.0,VALID,0.0,
2018-05-01, 02:32:06,VALID,917.004,VALID,0.0,VALID,96.908,VALID,0.019,VALID,21.12,VALID,343.0,VALID,0.0,
2018-05-01, 02:33:06,VALID,916.981,VALID,0.0,VALID,96.824,VALID,-0.021,VALID,21.101,VALID,346.0,VALID,0.0,
2018-05-01, 02:34:06,VALID,916.962,VALID,0.0,VALID,96.756,VALID,-0.014,VALID,21.071,VALID,359.0,VALID,0.0,
2018-05-01, 02:35:06,VALID,916.958,VALID,0.0,VALID,96.831,VALID,-0.014,VALID,21.05,VALID,9.0,VALID,0.0,
2018-05-01, 02:36:06,VALID,916.948,VALID,0.0,VALID,96.774,VALID,-0.021,VALID,21.039,VALID,357.0,VALID,0.0,
2018-05-01, 02:37:06,VALID,916.946,VALID,0.0,VALID,96.834,VALID,-0.004,VALID,21.065,VALID,351.0,VALID,0.0,
2018-05-01, 02:38:06,VALID,916.938,VALID,0.0,VALID,96.892,VALID,-0.008,VALID,21.083,VALID,6.0,VALID,0.0,
2018-05-01, 02:39:06,VALID,916.936,VALID,0.0,VALID,96.728,VALID,-0.027,VALID,21.074,VALID,10.0,VALID,0.0,
2018-05-01, 02:40:06,VALID,916.93,VALID,0.0,VALID,96.604,VALID,-0.012,VALID,21.049,VALID,16.0,VALID,0.0,
2018-05-01, 02:41:06,VALID,916.933,VALID,0.0,VALID,96.504,VALID,-0.008,VALID,21.02,VALID,25.0,VALID,0.0,
2018-05-01, 02:42:06,VALID,916.93,VALID,0.0,VALID,96.64,VALID,-0.004,VALID,21.038,VALID,26.0,VALID,0.0,
2018-05-01, 02:43:06,VALID,916.923,VALID,0.0,VALID,96.614,VALID,-0.026,VALID,21.042,VALID,26.0,VALID,0.0,
2018-05-01, 02:44:06,VALID,916.924,VALID,0.0,VALID,96.476,VALID,-0.016,VALID,21.028,VALID,26.0,VALID,0.0,
2018-05-01, 02:45:06,VALID,916.919,VALID,0.0,VALID,96.394,VALID,-0.009,VALID,21.015,VALID,26.0,VALID,0.0,
2018-05-01, 02:46:06,VALID,916.914,VALID,0.0,VALID,96.361,VALID,-0.017,VALID,21.007,VALID,45.0,VALID,0.0,
2018-05-01, 02:47:06,VALID,916.9,VALID,0.0,VALID,96.355,VALID,-0.011,VALID,20.994,VALID,67.0,VALID,0.0,
2018-05-01, 02:48:06,VALID,916.871,VALID,0.0,VALID,96.414,VALID,-0.054,VALID,20.99,VALID,100.0,VALID,0.0,
2018-05-01, 02:49:06,VALID,916.869,VALID,0.0,VALID,96.686,VALID,-0.051,VALID,20.982,VALID,119.0,VALID,0.0,
2018-05-01, 02:50:06,VALID,916.854,VALID,0.0,VALID,97.004,VALID,-0.06,VALID,20.963,VALID,139.0,VALID,0.0,
2018-05-01, 02:51:06,VALID,916.843,VALID,0.0,VALID,97.217,VALID,-0.058,VALID,20.966,VALID,139.0,VALID,0.0,
2018-05-01, 02:52:06,VALID,916.846,VALID,0.0,VALID,97.314,VALID,-0.048,VALID,20.954,VALID,139.0,VALID,0.0,
2018-05-01, 02:53:06,VALID,916.845,VALID,0.0,VALID,97.375,VALID,-0.061,VALID,20.937,VALID,139.0,VALID,0.0,
2018-05-01, 02:54:06,VALID,916.843,VALID,0.0,VALID,97.394,VALID,-0.06,VALID,20.918,VALID,139.0,VALID,0.0,
2018-05-01, 02:55:06,VALID,916.857,VALID,0.0,VALID,97.516,VALID,-0.058,VALID,20.92,VALID,146.0,VALID,0.0,
2018-05-01, 02:56:06,VALID,916.856,VALID,0.0,VALID,97.628,VALID,-0.063,VALID,20.918,VALID,159.0,VALID,0.0,
2018-05-01, 02:57:06,VALID,916.844,VALID,0.0,VALID,97.555,VALID,-0.048,VALID,20.896,VALID,159.0,VALID,0.0,
2018-05-01, 02:58:06,VALID,916.828,VALID,0.0,VALID,97.552,VALID,-0.061,VALID,20.873,VALID,132.0,VALID,0.0,
2018-05-01, 02:59:06,VALID,916.815,VALID,0.0,VALID,97.591,VALID,-0.06,VALID,20.874,VALID,122.0,VALID,0.0,
2018-05-01, 03:00:06,VALID,916.818,VALID,0.0,VALID,97.601,VALID,-0.062,VALID,20.874,VALID,146.0,VALID,0.0,
2018-05-01, 03:01:06,VALID,916.807,VALID,0.0,VALID,97.56,VALID,-0.047,VALID,20.862,VALID,146.0,VALID,0.0,
2018-05-01, 03:02:06,VALID,916.817,VALID,0.0,VALID,97.559,VALID,-0.041,VALID,20.861,VALID,110.0,VALID,0.0,
2018-05-01, 03:03:06,VALID,916.803,VALID,0.0,VALID,97.566,VALID,0.004,VALID,20.861,VALID,109.0,VALID,0.0,
2018-05-01, 03:04:06,VALID,916.795,VALID,0.0,VALID,97.442,VALID,0.031,VALID,20.813,VALID,109.0,VALID,0.0,
2018-05-01, 03:05:06,VALID,916.793,VALID,0.0,VALID,97.416,VALID,0.015,VALID,20.77,VALID,110.0,VALID,0.0,
2018-05-01, 03:06:06,VALID,916.775,VALID,0.0,VALID,97.383,VALID,0.019,VALID,20.725,VALID,110.0,VALID,0.0,
2018-05-01, 03:07:06,VALID,916.752,VALID,0.0,VALID,97.421,VALID,0.008,VALID,20.696,VALID,110.0,VALID,0.0,
2018-05-01, 03:08:06,VALID,916.738,VALID,0.0,VALID,97.561,VALID,0.001,VALID,20.686,VALID,110.0,VALID,0.0,
2018-05-01, 03:09:06,VALID,916.721,VALID,0.0,VALID,97.679,VALID,0.013,VALID,20.681,VALID,110.0,VALID,0.0,
2018-05-01, 03:10:06,VALID,916.702,VALID,0.0,VALID,97.814,VALID,0.01,VALID,20.682,VALID,110.0,VALID,0.0,
2018-05-01, 03:11:06,VALID,916.693,VALID,0.0,VALID,97.903,VALID,0.026,VALID,20.687,VALID,110.0,VALID,0.0,
2018-05-01, 03:12:06,VALID,916.681,VALID,0.0,VALID,98.001,VALID,0.003,VALID,20.696,VALID,110.0,VALID,0.0,
2018-05-01, 03:13:06,VALID,916.671,VALID,0.0,VALID,97.941,VALID,0.0,VALID,20.668,VALID,110.0,VALID,0.0,
2018-05-01, 03:14:06,VALID,916.667,VALID,0.0,VALID,97.898,VALID,0.015,VALID,20.624,VALID,108.0,VALID,0.0,
2018-05-01, 03:15:06,VALID,916.683,VALID,0.0,VALID,97.94,VALID,0.007,VALID,20.599,VALID,101.0,VALID,0.0,
2018-05-01, 03:16:06,VALID,916.705,VALID,0.0,VALID,97.901,VALID,0.012,VALID,20.557,VALID,98.0,VALID,0.0,
2018-05-01, 03:17:06,VALID,916.715,VALID,0.0,VALID,97.891,VALID,0.002,VALID,20.529,VALID,98.0,VALID,0.0,
2018-05-01, 03:18:06,VALID,916.733,VALID,0.0,VALID,97.849,VALID,-0.029,VALID,20.493,VALID,98.0,VALID,0.0,
2018-05-01, 03:19:06,VALID,916.734,VALID,0.0,VALID,97.893,VALID,-0.045,VALID,20.478,VALID,98.0,VALID,0.0,
2018-05-01, 03:20:06,VALID,916.743,VALID,0.0,VALID,97.901,VALID,-0.032,VALID,20.465,VALID,98.0,VALID,0.0,
2018-05-01, 03:21:06,VALID,916.726,VALID,0.0,VALID,97.891,VALID,-0.035,VALID,20.451,VALID,98.0,VALID,0.0,
2018-05-01, 03:22:06,VALID,916.724,VALID,0.0,VALID,97.841,VALID,-0.023,VALID,20.416,VALID,29.0,VALID,0.0,
2018-05-01, 03:23:06,VALID,916.723,VALID,0.0,VALID,97.767,VALID,-0.033,VALID,20.369,VALID,17.0,VALID,0.0,
2018-05-01, 03:24:06,VALID,916.728,VALID,0.0,VALID,97.952,VALID,-0.02,VALID,20.39,VALID,26.0,VALID,0.0,
2018-05-01, 03:25:06,VALID,916.729,VALID,0.0,VALID,98.106,VALID,-0.032,VALID,20.391,VALID,20.0,VALID,0.0,
2018-05-01, 03:26:06,VALID,916.734,VALID,0.0,VALID,98.224,VALID,-0.03,VALID,20.398,VALID,14.0,VALID,0.0,
2018-05-01, 03:27:06,VALID,916.743,VALID,0.0,VALID,98.277,VALID,-0.021,VALID,20.393,VALID,20.0,VALID,0.0,
2018-05-01, 03:28:06,VALID,916.744,VALID,0.0,VALID,98.313,VALID,-0.017,VALID,20.389,VALID,21.0,VALID,0.0,
2018-05-01, 03:29:06,VALID,916.75,VALID,0.0,VALID,98.341,VALID,-0.038,VALID,20.371,VALID,41.0,VALID,0.0,
2018-05-01, 03:30:06,VALID,916.737,VALID,0.0,VALID,98.347,VALID,-0.022,VALID,20.347,VALID,66.0,VALID,0.0,
2018-05-01, 03:31:06,VALID,916.734,VALID,0.0,VALID,98.357,VALID,-0.028,VALID,20.315,VALID,92.0,VALID,0.0,
2018-05-01, 03:32:06,VALID,916.738,VALID,0.0,VALID,98.34,VALID,-0.009,VALID,20.291,VALID,101.0,VALID,0.0,
2018-05-01, 03:33:06,VALID,916.721,VALID,0.0,VALID,98.457,VALID,-0.014,VALID,20.305,VALID,94.0,VALID,0.0,
2018-05-01, 03:34:06,VALID,916.724,VALID,0.0,VALID,98.38,VALID,-0.013,VALID,20.231,VALID,112.0,VALID,0.0,
2018-05-01, 03:35:06,VALID,916.709,VALID,0.0,VALID,98.421,VALID,-0.011,VALID,20.216,VALID,115.0,VALID,0.0,
2018-05-01, 03:36:06,VALID,916.706,VALID,0.0,VALID,98.481,VALID,-0.02,VALID,20.219,VALID,115.0,VALID,0.0,
2018-05-01, 03:37:06,VALID,916.709,VALID,0.0,VALID,98.524,VALID,-0.013,VALID,20.217,VALID,115.0,VALID,0.0,
2018-05-01, 03:38:06,VALID,916.698,VALID,0.0,VALID,98.539,VALID,-0.021,VALID,20.204,VALID,112.0,VALID,0.0,
2018-05-01, 03:39:06,VALID,916.695,VALID,0.0,VALID,98.538,VALID,-0.014,VALID,20.179,VALID,108.0,VALID,0.0,
2018-05-01, 03:40:06,VALID,916.69,VALID,0.0,VALID,98.534,VALID,-0.013,VALID,20.155,VALID,107.0,VALID,0.0,
2018-05-01, 03:41:06,VALID,916.683,VALID,0.0,VALID,98.572,VALID,-0.01,VALID,20.155,VALID,94.0,VALID,0.0,
2018-05-01, 03:42:06,VALID,916.68,VALID,0.0,VALID,98.653,VALID,-0.036,VALID,20.202,VALID,90.0,VALID,0.0,